DW6178 Weather Reports


Display with metric or nautical units.
time (UTC)temp
F
wind
direction
speed
MPH
gust
MPH
rain 1hr
in
rain 24hr
in
rain mn
in
humidity
%
barometer
mb
20260902083047 57 207 1.0 5.0 0.00 0.00 0.00 26 1012.9
20260902081547 56 228 1.0 6.0 0.00 0.00 0.00 27 1012.8
20260902080036 56 181 2.0 4.0 0.00 0.00 0.00 27 1012.9
20260902074554 57 233 1.0 4.0 0.00 0.00 0.00 27 1012.7
20260902073011 57 245 1.0 5.0 0.00 0.00 0.00 26 1012.6
20260902071528 57 238 1.0 5.0 0.00 0.00 0.00 27 1012.5
20260902070052 56 243 0.0 2.0 0.00 0.00 0.00 27 1012.6
20260902064551 56 248 0.0 1.0 0.00 0.00 0.00 27 1012.3
20260902063133 56 233 0.0 1.0 0.00 0.00 0.00 26 1012.3
20260902061541 57 239 0.0 2.0 0.00 0.00 0.00 26 1012.3
20260902060020 57 239 0.0 3.0 0.00 0.00 0.00 26 1012.3
20260902054522 58 250 1.0 2.0 0.00 0.00 0.00 25 1012.3
20260902053053 58 255 0.0 1.0 0.00 0.00 0.00 25 1012.5
20260902051549 58 245 0.0 2.0 0.00 0.00 0.00 24 1012.6
20260902050042 58 245 0.0 3.0 0.00 0.00 0.00 23 1012.5
20260902044532 59 255 0.0 3.0 0.00 0.00 0.00 22 1012.6
20260902043012 60 260 1.0 3.0 0.00 0.00 0.00 21 1012.5
20260902041511 60 285 1.0 3.0 0.00 0.00 0.00 21 1012.3
20260902040057 60 287 1.0 2.0 0.00 0.00 0.00 21 1012.1
20260902034554 60 288 1.0 2.0 0.00 0.00 0.00 20 1011.8
20260902033041 61 288 1.0 3.0 0.00 0.00 0.00 19 1011.7
20260902031541 60 290 1.0 3.0 0.00 0.00 0.00 20 1011.3
20260902030040 60 285 1.0 2.0 0.00 0.00 0.00 21 1011.3
20260902024540 60 285 1.0 2.0 0.00 0.00 0.00 22 1011.1
20260902023039 60 284 0.0 2.0 0.00 0.00 0.00 25 1010.8
20260902021548 61 278 0.0 2.0 0.00 0.00 0.00 29 1010.7
20260902020037 61 278 0.0 0.0 0.00 0.00 0.00 34 1010.8
20260902014543 62 278 0.0 1.0 0.00 0.00 0.00 34 1010.9
20260902013020 63 218 0.0 3.0 0.00 0.00 0.00 38 1010.9
20260902011524 63 186 1.0 4.0 0.00 0.00 0.00 46 1010.8
20260902010122 64 207 1.0 5.0 0.00 0.00 0.00 45 1011.0
20260902004602 65 215 1.0 5.0 0.00 0.00 0.00 46 1011.0
20260902003048 65 185 2.0 6.0 0.00 0.00 0.00 42 1011.1
20260902001548 66 183 2.0 6.0 0.00 0.00 0.00 41 1011.1
20260902000050 66 200 2.0 6.0 0.00 0.00 0.00 34 1011.1
20260901234547 66 226 3.0 8.0 0.00 0.00 0.00 43 1011.3
20260901233057 66 174 2.0 8.0 0.00 0.00 0.00 42 1011.5
20260901231554 67 179 3.0 7.0 0.00 0.00 0.00 42 1011.4
20260901230046 68 191 3.0 7.0 0.00 0.00 0.00 42 1011.4
20260901224545 68 205 4.0 10.0 0.00 0.00 0.00 43 1011.6
20260901223043 68 219 4.0 8.0 0.00 0.00 0.00 47 1011.7
20260901221525 68 200 2.0 6.0 0.00 0.00 0.00 49 1011.9
20260901220007 69 207 2.0 9.0 0.00 0.00 0.00 47 1012.1
20260901214505 70 180 3.0 7.0 0.00 0.00 0.00 45 1012.2
20260901213047 71 181 2.0 6.0 0.00 0.00 0.00 42 1012.3
20260901211546 72 226 2.0 6.0 0.00 0.00 0.00 39 1012.5
20260901210035 72 233 1.0 8.0 0.00 0.00 0.00 38 1012.6
20260901204528 72 211 2.0 8.0 0.00 0.00 0.00 39 1012.5
20260901203004 71 210 2.0 8.0 0.00 0.00 0.00 37 1012.7
20260901201501 72 188 2.0 7.0 0.00 0.00 0.00 34 1012.9
20260901200046 71 221 1.0 8.0 0.00 0.00 0.00 32 1013.1
20260901194553 71 163 2.0 9.0 0.00 0.00 0.00 32 1013.2
20260901193019 71 169 3.0 7.0 0.00 0.00 0.00 30 1013.3
20260901191528 70 194 3.0 6.0 0.00 0.00 0.00 31 1013.4
20260901190128 70 195 1.0 7.0 0.00 0.00 0.00 31 1013.5
20260901184605 69 158 3.0 7.0 0.00 0.00 0.00 32 1013.6
20260901183056 69 188 1.0 6.0 0.00 0.00 0.00 31 1013.5
20260901181537 68 217 1.0 6.0 0.00 0.00 0.00 35 1013.5
20260901180034 68 167 3.0 6.0 0.00 0.00 0.00 32 1013.5
20260901174514 67 170 2.0 5.0 0.00 0.00 0.00 29 1013.5
20260901173010 67 198 3.0 7.0 0.00 0.00 0.00 26 1013.5
20260901171552 67 289 0.0 3.0 0.00 0.00 0.00 23 1013.4
20260901170140 66 155 1.0 5.0 0.00 0.00 0.00 25 1013.1
20260901164533 66 181 1.0 5.0 0.00 0.00 0.00 23 1013.0
20260901163029 65 233 1.0 4.0 0.00 0.00 0.00 21 1012.9
20260901161526 64 203 1.0 6.0 0.00 0.00 0.00 21 1012.7
20260901160032 63 169 1.0 5.0 0.00 0.00 0.00 21 1012.5
20260901154521 63 243 2.0 4.0 0.00 0.00 0.00 22 1012.5
20260901153019 62 191 0.0 4.0 0.00 0.00 0.00 22 1012.3
20260901151516 61 198 1.0 3.0 0.00 0.00 0.00 23 1012.2
20260901150015 61 181 1.0 4.0 0.00 0.00 0.00 23 1012.1
20260901144600 60 200 1.0 4.0 0.00 0.00 0.00 24 1012.0
20260901143058 59 232 1.0 5.0 0.00 0.00 0.00 24 1012.1
20260901141556 59 207 1.0 3.0 0.00 0.00 0.00 23 1012.0
20260901140054 59 195 1.0 3.0 0.00 0.00 0.00 23 1011.8
20260901134552 59 194 1.0 3.0 0.00 0.00 0.00 22 1011.6
20260901133050 59 193 2.0 5.0 0.00 0.00 0.00 22 1011.3
20260901131553 59 210 1.0 3.0 0.00 0.00 0.00 22 1011.2
20260901130057 59 205 1.0 6.0 0.00 0.00 0.00 22 1011.1
20260901124531 59 186 0.0 4.0 0.00 0.00 0.00 22 1010.9
20260901123038 59 214 1.0 5.0 0.00 0.00 0.00 23 1011.0
20260901121509 59 236 0.0 3.0 0.00 0.00 0.00 22 1010.9
20260901120009 59 185 0.0 2.0 0.00 0.00 0.00 23 1010.9
20260901114551 58 217 0.0 1.0 0.00 0.00 0.00 23 1010.7
20260901113059 58 188 0.0 0.0 0.00 0.00 0.00 22 1010.7
20260901111537 59 177 0.0 1.0 0.00 0.00 0.00 22 1010.8
20260901110036 59 205 1.0 3.0 0.00 0.00 0.00 22 1010.8
20260901104536 59 211 0.0 4.0 0.00 0.00 0.00 23 1010.8
20260901103035 59 195 1.0 4.0 0.00 0.00 0.00 23 1010.9
20260901101541 59 208 0.0 3.0 0.00 0.00 0.00 24 1010.9
20260901100032 59 200 1.0 3.0 0.00 0.00 0.00 25 1011.0
20260901094530 59 201 0.0 2.0 0.00 0.00 0.00 25 1011.0
20260901093028 58 184 0.0 1.0 0.00 0.00 0.00 25 1010.9
20260901091511 59 195 0.0 3.0 0.00 0.00 0.00 25 1011.0
20260901090010 59 197 0.0 3.0 0.00 0.00 0.00 26 1011.0
20260901084605 59 203 0.0 3.0 0.00 0.00 0.00 26 1011.0